owner,sensor,date,latitude,longitude,vertical_datum,direction_of_sea_water_velocity,sea_water_speed,upward_sea_water_velocity,qcFlag 
TABS,ioos:station:wmo:42049:1,2010-04-01T00:00:00Z,28.3507,-96.0058,2.0,26.87406793,11.61430583,-99999.0,'11111222,11111222,99999999' 
TABS,ioos:station:wmo:42049:1,2010-04-01T00:30:00Z,28.3507,-96.0058,2.0,41.12820584,9.319726391,-99999.0,'11133222,11111222,99999999' 
TABS,ioos:station:wmo:42049:1,2010-04-01T01:00:00Z,28.3507,-96.0058,2.0,25.42138575,10.52950616,-99999.0,'11111222,11111222,99999999' 
TABS,ioos:station:wmo:42049:1,2010-04-01T01:30:00Z,28.3507,-96.0058,2.0,17.16875202,10.87456666,-99999.0,'11111222,11111222,99999999' 
TABS,ioos:station:wmo:42049:1,2010-04-01T02:00:00Z,28.3507,-96.0058,2.0,18.0596586,12.0643483,-99999.0,'11111222,11111222,99999999' 
TABS,ioos:station:wmo:42049:1,2010-04-01T02:30:00Z,28.3507,-96.0058,2.0,21.60887133,11.59488249,-99999.0,'11111222,11111222,99999999' 
TABS,ioos:station:wmo:42049:1,2010-04-01T03:00:00Z,28.3507,-96.0058,2.0,18.04984867,13.16802187,-99999.0,'11111222,11111222,99999999' 
TABS,ioos:station:wmo:42049:1,2010-04-01T03:30:00Z,28.3507,-96.0058,2.0,17.34258387,11.77530042,-99999.0,'11111222,11111222,99999999' 
TABS,ioos:station:wmo:42049:1,2010-04-01T04:00:00Z,28.3507,-96.0058,2.0,26.37064799,13.17051631,-99999.0,'11111222,11111222,99999999' 
TABS,ioos:station:wmo:42049:1,2010-04-01T04:30:00Z,28.3507,-96.0058,2.0,18.44814679,13.90453523,-99999.0,'11111222,11111222,99999999' 
TABS,ioos:station:wmo:42049:1,2010-04-01T05:00:00Z,28.3507,-96.0058,2.0,31.62462679,15.46677083,-99999.0,'11111222,11111222,99999999' 
TABS,ioos:station:wmo:42049:1,2010-04-01T05:30:00Z,28.3507,-96.0058,2.0,29.54607979,13.93166537,-99999.0,'11111222,11111222,99999999' 
TABS,ioos:station:wmo:42049:1,2010-04-01T06:00:00Z,28.3507,-96.0058,2.0,35.63667588,18.86236995,-99999.0,'11111222,11111222,99999999' 
TABS,ioos:station:wmo:42049:1,2010-04-01T06:30:00Z,28.3507,-96.0058,2.0,28.84842129,19.42001545,-99999.0,'11111222,11111222,99999999' 
TABS,ioos:station:wmo:42049:1,2010-04-01T07:00:00Z,28.3507,-96.0058,2.0,33.33954705,19.48698283,-99999.0,'11111222,11111222,99999999' 
TABS,ioos:station:wmo:42049:1,2010-04-01T07:30:00Z,28.3507,-96.0058,2.0,32.77594473,21.20611468,-99999.0,'11111222,11111222,99999999' 
TABS,ioos:station:wmo:42049:1,2010-04-01T08:00:00Z,28.3507,-96.0058,2.0,34.07604715,21.82794768,-99999.0,'11111222,11111222,99999999' 
TABS,ioos:station:wmo:42049:1,2010-04-01T08:30:00Z,28.3507,-96.0058,2.0,33.21013763,22.8405823,-99999.0,'11111222,11111222,99999999' 
TABS,ioos:station:wmo:42049:1,2010-04-01T09:00:00Z,28.3507,-96.0058,2.0,41.83868161,23.20720793,-99999.0,'11111222,11111222,99999999' 
TABS,ioos:station:wmo:42049:1,2010-04-01T09:30:00Z,28.3507,-96.0058,2.0,40.9446962,23.8964035,-99999.0,'11111222,11111222,99999999' 
TABS,ioos:station:wmo:42049:1,2010-04-01T10:00:00Z,28.3507,-96.0058,2.0,47.64264434,20.70489073,-99999.0,'11111222,11111222,99999999' 
TABS,ioos:station:wmo:42049:1,2010-04-01T10:30:00Z,28.3507,-96.0058,2.0,47.7785794,22.90182744,-99999.0,'11111222,11111222,99999999' 
TABS,ioos:station:wmo:42049:1,2010-04-01T11:00:00Z,28.3507,-96.0058,2.0,50.44896466,22.48861934,-99999.0,'11111222,11111222,99999999' 
TABS,ioos:station:wmo:42049:1,2010-04-01T11:30:00Z,28.3507,-96.0058,2.0,48.40245473,21.20815881,-99999.0,'11111222,11111222,99999999' 
TABS,ioos:station:wmo:42049:1,2010-04-01T12:00:00Z,28.3507,-96.0058,2.0,56.35777088,19.963667,-99999.0,'11111222,11111222,99999999' 
TABS,ioos:station:wmo:42049:1,2010-04-01T12:30:00Z,28.3507,-96.0058,2.0,55.19807679,20.00903046,-99999.0,'11111222,11111222,99999999' 
TABS,ioos:station:wmo:42049:1,2010-04-01T13:00:00Z,28.3507,-96.0058,2.0,62.7713845,19.69213549,-99999.0,'11111222,11111222,99999999' 
TABS,ioos:station:wmo:42049:1,2010-04-01T13:30:00Z,28.3507,-96.0058,2.0,71.57327587,22.14543068,-99999.0,'11111222,11111222,99999999' 
TABS,ioos:station:wmo:42049:1,2010-04-01T14:00:00Z,28.3507,-96.0058,2.0,68.73330769,20.09868155,-99999.0,'11111222,11111222,99999999' 
TABS,ioos:station:wmo:42049:1,2010-04-01T14:30:00Z,28.3507,-96.0058,2.0,67.90174703,19.351571,-99999.0,'11111222,11111222,99999999' 
TABS,ioos:station:wmo:42049:1,2010-04-01T15:00:00Z,28.3507,-96.0058,2.0,65.21601811,17.98667562,-99999.0,'11111222,11111222,99999999' 
TABS,ioos:station:wmo:42049:1,2010-04-01T15:30:00Z,28.3507,-96.0058,2.0,71.68230308,18.54995957,-99999.0,'11111222,11111222,99999999' 
TABS,ioos:station:wmo:42049:1,2010-04-01T16:00:00Z,28.3507,-96.0058,2.0,71.89684329,18.56920569,-99999.0,'11111222,11111222,99999999' 
TABS,ioos:station:wmo:42049:1,2010-04-01T16:30:00Z,28.3507,-96.0058,2.0,65.07631042,18.58040366,-99999.0,'11111222,11111222,99999999' 
TABS,ioos:station:wmo:42049:1,2010-04-01T17:00:00Z,28.3507,-96.0058,2.0,67.0974332,16.52250889,-99999.0,'11111222,11111222,99999999' 
TABS,ioos:station:wmo:42049:1,2010-04-01T17:30:00Z,28.3507,-96.0058,2.0,68.50877197,17.49647107,-99999.0,'11111222,11111222,99999999' 
TABS,ioos:station:wmo:42049:1,2010-04-01T18:00:00Z,28.3507,-96.0058,2.0,68.03079535,17.74883658,-99999.0,'11111222,11111222,99999999' 
TABS,ioos:station:wmo:42049:1,2010-04-01T18:30:00Z,28.3507,-96.0058,2.0,67.55461899,17.18161808,-99999.0,'11111222,11111222,99999999' 
TABS,ioos:station:wmo:42049:1,2010-04-01T19:00:00Z,28.3507,-96.0058,2.0,58.93802096,18.99349626,-99999.0,'11111222,11111222,99999999' 
TABS,ioos:station:wmo:42049:1,2010-04-01T19:30:00Z,28.3507,-96.0058,2.0,62.09050239,16.96300976,-99999.0,'11111222,11111222,99999999' 
TABS,ioos:station:wmo:42049:1,2010-04-01T20:00:00Z,28.3507,-96.0058,2.0,66.07006969,17.89852508,-99999.0,'11111222,11111222,99999999' 
TABS,ioos:station:wmo:42049:1,2010-04-01T20:30:00Z,28.3507,-96.0058,2.0,62.4637419,17.4125271,-99999.0,'11111222,11111222,99999999' 
TABS,ioos:station:wmo:42049:1,2010-04-01T21:00:00Z,28.3507,-96.0058,2.0,65.87861957,17.20206092,-99999.0,'11111222,11111222,99999999' 
TABS,ioos:station:wmo:42049:1,2010-04-01T21:30:00Z,28.3507,-96.0058,2.0,58.39517708,14.40678312,-99999.0,'11111222,11111222,99999999' 
TABS,ioos:station:wmo:42049:1,2010-04-01T22:00:00Z,28.3507,-96.0058,2.0,76.62303039,13.70174441,-99999.0,'11111222,11111222,99999999' 
TABS,ioos:station:wmo:42049:1,2010-04-01T22:30:00Z,28.3507,-96.0058,2.0,81.85633305,11.93030595,-99999.0,'11111222,11111222,99999999' 
TABS,ioos:station:wmo:42049:1,2010-04-01T23:00:00Z,28.3507,-96.0058,2.0,92.16630969,10.3173737,-99999.0,'11111222,11111222,99999999' 
TABS,ioos:station:wmo:42049:1,2010-04-01T23:30:00Z,28.3507,-96.0058,2.0,68.96901299,6.353211786,-99999.0,'11133222,11111222,99999999' 
TABS,ioos:station:wmo:42049:1,2010-04-02T00:00:00Z,28.3507,-96.0058,2.0,81.96897053,5.726159271,-99999.0,'11133222,11111222,99999999' 
TABS,ioos:station:wmo:42049:1,2010-04-02T00:30:00Z,28.3507,-96.0058,2.0,71.51839858,3.880115978,-99999.0,'11133222,11111222,99999999' 
TABS,ioos:station:wmo:42049:1,2010-04-02T01:00:00Z,28.3507,-96.0058,2.0,214.5082318,0.776659514,-99999.0,'11133222,11111222,99999999' 
TABS,ioos:station:wmo:42049:1,2010-04-02T01:30:00Z,28.3507,-96.0058,2.0,328.9808815,5.297593793,-99999.0,'11133222,11111222,99999999' 
TABS,ioos:station:wmo:42049:1,2010-04-02T02:00:00Z,28.3507,-96.0058,2.0,324.0416314,9.809240541,-99999.0,'11133222,11111222,99999999' 
TABS,ioos:station:wmo:42049:1,2010-04-02T02:30:00Z,28.3507,-96.0058,2.0,331.9383357,9.587058986,-99999.0,'11133222,11111222,99999999' 
TABS,ioos:station:wmo:42049:1,2010-04-02T03:00:00Z,28.3507,-96.0058,2.0,325.9286803,12.49489896,-99999.0,'11111222,11111222,99999999' 
TABS,ioos:station:wmo:42049:1,2010-04-02T03:30:00Z,28.3507,-96.0058,2.0,327.49821,15.6514568,-99999.0,'11111222,11111222,99999999' 
TABS,ioos:station:wmo:42049:1,2010-04-02T04:00:00Z,28.3507,-96.0058,2.0,332.455904,18.31607218,-99999.0,'11111222,11111222,99999999' 
TABS,ioos:station:wmo:42049:1,2010-04-02T04:30:00Z,28.3507,-96.0058,2.0,341.5255023,18.20839916,-99999.0,'11111222,11111222,99999999' 
TABS,ioos:station:wmo:42049:1,2010-04-02T05:00:00Z,28.3507,-96.0058,2.0,337.2914335,19.81617773,-99999.0,'11111222,11111222,99999999' 
TABS,ioos:station:wmo:42049:1,2010-04-02T05:30:00Z,28.3507,-96.0058,2.0,347.4525931,19.79273604,-99999.0,'11111222,11111222,99999999' 
TABS,ioos:station:wmo:42049:1,2010-04-02T06:00:00Z,28.3507,-96.0058,2.0,350.0460415,22.21440974,-99999.0,'11111222,11111222,99999999' 
TABS,ioos:station:wmo:42049:1,2010-04-02T06:30:00Z,28.3507,-96.0058,2.0,358.7071425,19.0548524,-99999.0,'11111222,11111222,99999999' 
TABS,ioos:station:wmo:42049:1,2010-04-02T07:00:00Z,28.3507,-96.0058,2.0,4.841930821,21.32609903,-99999.0,'11111222,11111222,99999999' 
TABS,ioos:station:wmo:42049:1,2010-04-02T07:30:00Z,28.3507,-96.0058,2.0,14.51660484,18.23204322,-99999.0,'11111222,11111222,99999999' 
TABS,ioos:station:wmo:42049:1,2010-04-02T08:00:00Z,28.3507,-96.0058,2.0,13.60741448,18.78733616,-99999.0,'11111222,11111222,99999999' 
TABS,ioos:station:wmo:42049:1,2010-04-02T08:30:00Z,28.3507,-96.0058,2.0,18.61891045,18.73026695,-99999.0,'11111222,11111222,99999999' 
TABS,ioos:station:wmo:42049:1,2010-04-02T09:00:00Z,28.3507,-96.0058,2.0,25.13845475,17.96119428,-99999.0,'11111222,11111222,99999999' 
TABS,ioos:station:wmo:42049:1,2010-04-02T09:30:00Z,28.3507,-96.0058,2.0,37.49860824,22.42334944,-99999.0,'11111222,11111222,99999999' 
TABS,ioos:station:wmo:42049:1,2010-04-02T10:00:00Z,28.3507,-96.0058,2.0,44.67713432,18.81641039,-99999.0,'11111222,11111222,99999999' 
TABS,ioos:station:wmo:42049:1,2010-04-02T10:30:00Z,28.3507,-96.0058,2.0,48.50167573,16.90312397,-99999.0,'11111222,11111222,99999999' 
TABS,ioos:station:wmo:42049:1,2010-04-02T11:00:00Z,28.3507,-96.0058,2.0,50.08350127,16.51934926,-99999.0,'11111222,11111222,99999999' 
TABS,ioos:station:wmo:42049:1,2010-04-02T11:30:00Z,28.3507,-96.0058,2.0,66.39140959,12.6595774,-99999.0,'11111222,11111222,99999999' 
TABS,ioos:station:wmo:42049:1,2010-04-02T12:00:00Z,28.3507,-96.0058,2.0,76.65626026,15.251754,-99999.0,'11111222,11111222,99999999' 
TABS,ioos:station:wmo:42049:1,2010-04-02T12:30:00Z,28.3507,-96.0058,2.0,87.31448529,15.36687672,-99999.0,'11111222,11111222,99999999' 
TABS,ioos:station:wmo:42049:1,2010-04-02T13:00:00Z,28.3507,-96.0058,2.0,97.49216236,12.19410513,-99999.0,'11111222,11111222,99999999' 
TABS,ioos:station:wmo:42049:1,2010-04-02T13:30:00Z,28.3507,-96.0058,2.0,98.8176868,14.6127068,-99999.0,'11111222,11111222,99999999' 
TABS,ioos:station:wmo:42049:1,2010-04-02T14:00:00Z,28.3507,-96.0058,2.0,99.39573145,14.14983039,-99999.0,'11111222,11111222,99999999' 
TABS,ioos:station:wmo:42049:1,2010-04-02T14:30:00Z,28.3507,-96.0058,2.0,114.7750826,9.736118323,-99999.0,'11133222,11111222,99999999' 
TABS,ioos:station:wmo:42049:1,2010-04-02T15:00:00Z,28.3507,-96.0058,2.0,128.2306215,8.758470186,-99999.0,'11133222,11111222,99999999' 
TABS,ioos:station:wmo:42049:1,2010-04-02T15:30:00Z,28.3507,-96.0058,2.0,133.7192814,9.491743781,-99999.0,'11133222,11111222,99999999' 
TABS,ioos:station:wmo:42049:1,2010-04-02T16:00:00Z,28.3507,-96.0058,2.0,144.0616363,8.979187046,-99999.0,'11133222,11111222,99999999' 
TABS,ioos:station:wmo:42049:1,2010-04-02T16:30:00Z,28.3507,-96.0058,2.0,157.9465046,8.868895083,-99999.0,'11133222,11111222,99999999' 
TABS,ioos:station:wmo:42049:1,2010-04-02T17:00:00Z,28.3507,-96.0058,2.0,163.9860489,9.207285159,-99999.0,'11133222,11111222,99999999' 
TABS,ioos:station:wmo:42049:1,2010-04-02T17:30:00Z,28.3507,-96.0058,2.0,175.3108087,12.11053261,-99999.0,'11111222,11111222,99999999' 
TABS,ioos:station:wmo:42049:1,2010-04-02T18:00:00Z,28.3507,-96.0058,2.0,185.5981992,12.19818429,-99999.0,'11111222,11111222,99999999' 
TABS,ioos:station:wmo:42049:1,2010-04-02T18:30:00Z,28.3507,-96.0058,2.0,184.4843851,13.30072178,-99999.0,'11111222,11111222,99999999' 
TABS,ioos:station:wmo:42049:1,2010-04-02T19:00:00Z,28.3507,-96.0058,2.0,188.0853047,12.7265117,-99999.0,'11111222,11111222,99999999' 
TABS,ioos:station:wmo:42049:1,2010-04-02T19:30:00Z,28.3507,-96.0058,2.0,193.4194318,11.72,-99999.0,'11111222,11111222,99999999' 
TABS,ioos:station:wmo:42049:1,2010-04-02T20:00:00Z,28.3507,-96.0058,2.0,192.8522934,14.20591778,-99999.0,'11111222,11111222,99999999' 
TABS,ioos:station:wmo:42049:1,2010-04-02T20:30:00Z,28.3507,-96.0058,2.0,200.713637,16.1435467,-99999.0,'11111222,11111222,99999999' 
TABS,ioos:station:wmo:42049:1,2010-04-02T21:00:00Z,28.3507,-96.0058,2.0,213.4974837,19.00690927,-99999.0,'11111222,11111222,99999999' 
TABS,ioos:station:wmo:42049:1,2010-04-02T21:30:00Z,28.3507,-96.0058,2.0,217.7387553,18.8541693,-99999.0,'11111222,11111222,99999999' 
TABS,ioos:station:wmo:42049:1,2010-04-02T22:00:00Z,28.3507,-96.0058,2.0,225.303292,18.68202345,-99999.0,'11111222,11111222,99999999' 
TABS,ioos:station:wmo:42049:1,2010-04-02T22:30:00Z,28.3507,-96.0058,2.0,231.4624892,18.97203205,-99999.0,'11111222,11111222,99999999' 
TABS,ioos:station:wmo:42049:1,2010-04-02T23:00:00Z,28.3507,-96.0058,2.0,230.0157796,18.92394251,-99999.0,'11111222,11111222,99999999' 
TABS,ioos:station:wmo:42049:1,2010-04-02T23:30:00Z,28.3507,-96.0058,2.0,235.4223584,18.4487669,-99999.0,'11111222,11111222,99999999' 
TABS,ioos:station:wmo:42049:1,2010-04-03T00:00:00Z,28.3507,-96.0058,2.0,235.1165941,20.24817276,-99999.0,'11111222,11111222,99999999' 
TABS,ioos:station:wmo:42049:1,2010-04-03T00:30:00Z,28.3507,-96.0058,2.0,241.9732218,21.21824215,-99999.0,'11111222,11111222,99999999' 
TABS,ioos:station:wmo:42049:1,2010-04-03T01:00:00Z,28.3507,-96.0058,2.0,230.3450017,20.41811206,-99999.0,'11111222,11111222,99999999' 
TABS,ioos:station:wmo:42049:1,2010-04-03T01:30:00Z,28.3507,-96.0058,2.0,238.8011983,20.09637281,-99999.0,'11111222,11111222,99999999' 
TABS,ioos:station:wmo:42049:1,2010-04-03T02:00:00Z,28.3507,-96.0058,2.0,239.5090726,19.72815501,-99999.0,'11111222,11111222,99999999' 
TABS,ioos:station:wmo:42049:1,2010-04-03T02:30:00Z,28.3507,-96.0058,2.0,239.8408567,21.11870498,-99999.0,'11111222,11111222,99999999' 
TABS,ioos:station:wmo:42049:1,2010-04-03T03:00:00Z,28.3507,-96.0058,2.0,244.838071,20.81509308,-99999.0,'11111222,11111222,99999999' 
TABS,ioos:station:wmo:42049:1,2010-04-03T03:30:00Z,28.3507,-96.0058,2.0,240.9146474,23.80136341,-99999.0,'11111222,11111222,99999999' 
TABS,ioos:station:wmo:42049:1,2010-04-03T04:00:00Z,28.3507,-96.0058,2.0,252.1201855,23.8099076,-99999.0,'11111222,11111222,99999999' 
TABS,ioos:station:wmo:42049:1,2010-04-03T04:30:00Z,28.3507,-96.0058,2.0,253.5460534,23.23133229,-99999.0,'11111222,11111222,99999999' 
TABS,ioos:station:wmo:42049:1,2010-04-03T05:00:00Z,28.3507,-96.0058,2.0,264.2141555,21.32864037,-99999.0,'11111222,11111222,99999999' 
TABS,ioos:station:wmo:42049:1,2010-04-03T05:30:00Z,28.3507,-96.0058,2.0,260.8243053,23.95652103,-99999.0,'11111222,11111222,99999999' 
TABS,ioos:station:wmo:42049:1,2010-04-03T06:00:00Z,28.3507,-96.0058,2.0,261.1623389,24.86518248,-99999.0,'11111222,11111222,99999999' 
TABS,ioos:station:wmo:42049:1,2010-04-03T06:30:00Z,28.3507,-96.0058,2.0,259.2471764,24.38819592,-99999.0,'11111222,11111222,99999999' 
TABS,ioos:station:wmo:42049:1,2010-04-03T07:00:00Z,28.3507,-96.0058,2.0,262.0055565,23.22569482,-99999.0,'11111222,11111222,99999999' 
TABS,ioos:station:wmo:42049:1,2010-04-03T07:30:00Z,28.3507,-96.0058,2.0,266.0649534,20.54843303,-99999.0,'11111222,11111222,99999999' 
TABS,ioos:station:wmo:42049:1,2010-04-03T08:00:00Z,28.3507,-96.0058,2.0,269.5743347,20.21055665,-99999.0,'11111222,11111222,99999999' 
TABS,ioos:station:wmo:42049:1,2010-04-03T08:30:00Z,28.3507,-96.0058,2.0,269.6849282,20.03030204,-99999.0,'11111222,11111222,99999999' 
TABS,ioos:station:wmo:42049:1,2010-04-03T09:00:00Z,28.3507,-96.0058,2.0,270.9908467,18.51276587,-99999.0,'11111222,11111222,99999999' 
TABS,ioos:station:wmo:42049:1,2010-04-03T09:30:00Z,28.3507,-96.0058,2.0,278.7178575,16.69283978,-99999.0,'11111222,11111222,99999999' 
TABS,ioos:station:wmo:42049:1,2010-04-03T10:00:00Z,28.3507,-96.0058,2.0,276.5490613,15.78297817,-99999.0,'11111222,11111222,99999999' 
TABS,ioos:station:wmo:42049:1,2010-04-03T10:30:00Z,28.3507,-96.0058,2.0,278.5497476,13.72248155,-99999.0,'11111222,11111222,99999999' 
TABS,ioos:station:wmo:42049:1,2010-04-03T11:00:00Z,28.3507,-96.0058,2.0,273.0004226,14.13937764,-99999.0,'11111222,11111222,99999999' 
TABS,ioos:station:wmo:42049:1,2010-04-03T11:30:00Z,28.3507,-96.0058,2.0,276.5645901,13.55888638,-99999.0,'11111222,11111222,99999999' 
TABS,ioos:station:wmo:42049:1,2010-04-03T12:00:00Z,28.3507,-96.0058,2.0,273.119971,12.1279718,-99999.0,'11111222,11111222,99999999' 
TABS,ioos:station:wmo:42049:1,2010-04-03T12:30:00Z,28.3507,-96.0058,2.0,263.6006374,11.8437874,-99999.0,'11111222,11111222,99999999' 
TABS,ioos:station:wmo:42049:1,2010-04-03T13:00:00Z,28.3507,-96.0058,2.0,255.4050044,14.683804,-99999.0,'11111222,11111222,99999999' 
TABS,ioos:station:wmo:42049:1,2010-04-03T13:30:00Z,28.3507,-96.0058,2.0,255.9633684,13.97732807,-99999.0,'11111222,11111222,99999999' 
TABS,ioos:station:wmo:42049:1,2010-04-03T14:00:00Z,28.3507,-96.0058,2.0,252.2517653,13.71262192,-99999.0,'11111222,11111222,99999999' 
TABS,ioos:station:wmo:42049:1,2010-04-03T14:30:00Z,28.3507,-96.0058,2.0,248.4945471,13.28482217,-99999.0,'11111222,11111222,99999999' 
TABS,ioos:station:wmo:42049:1,2010-04-03T15:00:00Z,28.3507,-96.0058,2.0,248.5962819,16.30444418,-99999.0,'11111222,11111222,99999999' 
TABS,ioos:station:wmo:42049:1,2010-04-03T15:30:00Z,28.3507,-96.0058,2.0,245.411753,15.81394321,-99999.0,'11111222,11111222,99999999' 
TABS,ioos:station:wmo:42049:1,2010-04-03T16:00:00Z,28.3507,-96.0058,2.0,249.7242389,17.92038504,-99999.0,'11111222,11111222,99999999' 
TABS,ioos:station:wmo:42049:1,2010-04-03T16:30:00Z,28.3507,-96.0058,2.0,254.3155017,18.97655922,-99999.0,'11111222,11111222,99999999' 
TABS,ioos:station:wmo:42049:1,2010-04-03T17:00:00Z,28.3507,-96.0058,2.0,251.3043883,22.27531369,-99999.0,'11111222,11111222,99999999' 
TABS,ioos:station:wmo:42049:1,2010-04-03T17:30:00Z,28.3507,-96.0058,2.0,254.1301758,24.86777835,-99999.0,'11111222,11111222,99999999' 
TABS,ioos:station:wmo:42049:1,2010-04-03T18:00:00Z,28.3507,-96.0058,2.0,252.8401118,26.70888991,-99999.0,'11111222,11111222,99999999' 
TABS,ioos:station:wmo:42049:1,2010-04-03T18:30:00Z,28.3507,-96.0058,2.0,253.8582829,28.92006224,-99999.0,'11111222,11111222,99999999' 
TABS,ioos:station:wmo:42049:1,2010-04-03T19:00:00Z,28.3507,-96.0058,2.0,254.013802,31.15475726,-99999.0,'11111222,11111222,99999999' 
TABS,ioos:station:wmo:42049:1,2010-04-03T19:30:00Z,28.3507,-96.0058,2.0,256.7652973,31.71221374,-99999.0,'11111222,11111222,99999999' 
TABS,ioos:station:wmo:42049:1,2010-04-03T20:00:00Z,28.3507,-96.0058,2.0,259.4841688,33.09581847,-99999.0,'11111222,11111222,99999999' 
TABS,ioos:station:wmo:42049:1,2010-04-03T20:30:00Z,28.3507,-96.0058,2.0,262.0218581,33.50425197,-99999.0,'11111222,11111222,99999999' 
TABS,ioos:station:wmo:42049:1,2010-04-03T21:00:00Z,28.3507,-96.0058,2.0,262.376315,34.37380543,-99999.0,'11111222,11111222,99999999' 
TABS,ioos:station:wmo:42049:1,2010-04-03T21:30:00Z,28.3507,-96.0058,2.0,261.3037023,33.79852364,-99999.0,'11111222,11111222,99999999' 
TABS,ioos:station:wmo:42049:1,2010-04-03T22:00:00Z,28.3507,-96.0058,2.0,262.1619837,34.90607397,-99999.0,'11111222,11111222,99999999' 
TABS,ioos:station:wmo:42049:1,2010-04-03T22:30:00Z,28.3507,-96.0058,2.0,264.4123482,36.05127598,-99999.0,'11111222,11111222,99999999' 
TABS,ioos:station:wmo:42049:1,2010-04-03T23:00:00Z,28.3507,-96.0058,2.0,267.9413516,35.08263388,-99999.0,'11111222,11111222,99999999' 
TABS,ioos:station:wmo:42049:1,2010-04-03T23:30:00Z,28.3507,-96.0058,2.0,266.8607038,34.1512357,-99999.0,'11111222,11111222,99999999' 
TABS,ioos:station:wmo:42049:1,2010-04-04T00:00:00Z,28.3507,-96.0058,2.0,269.5689224,33.26093955,-99999.0,'11111222,11111222,99999999' 
TABS,ioos:station:wmo:42049:1,2010-04-04T00:30:00Z,28.3507,-96.0058,2.0,271.1751971,33.16697152,-99999.0,'11111222,11111222,99999999' 
TABS,ioos:station:wmo:42049:1,2010-04-04T01:00:00Z,28.3507,-96.0058,2.0,270.4978856,33.40125896,-99999.0,'11111222,11111222,99999999' 
TABS,ioos:station:wmo:42049:1,2010-04-04T01:30:00Z,28.3507,-96.0058,2.0,271.1427858,37.11737733,-99999.0,'11111222,11111222,99999999' 
TABS,ioos:station:wmo:42049:1,2010-04-04T02:00:00Z,28.3507,-96.0058,2.0,273.2237861,35.03542921,-99999.0,'11111222,11111222,99999999' 
TABS,ioos:station:wmo:42049:1,2010-04-04T02:30:00Z,28.3507,-96.0058,2.0,274.9299907,35.84257943,-99999.0,'11111222,11111222,99999999' 
TABS,ioos:station:wmo:42049:1,2010-04-04T03:00:00Z,28.3507,-96.0058,2.0,275.5428434,34.58167145,-99999.0,'11111222,11111222,99999999' 
TABS,ioos:station:wmo:42049:1,2010-04-04T03:30:00Z,28.3507,-96.0058,2.0,274.6970678,34.80687576,-99999.0,'11111222,11111222,99999999' 
TABS,ioos:station:wmo:42049:1,2010-04-04T04:00:00Z,28.3507,-96.0058,2.0,277.1173243,35.11051267,-99999.0,'11111222,11111222,99999999' 
TABS,ioos:station:wmo:42049:1,2010-04-04T04:30:00Z,28.3507,-96.0058,2.0,280.0563704,36.65307763,-99999.0,'11111222,11111222,99999999' 
TABS,ioos:station:wmo:42049:1,2010-04-04T05:00:00Z,28.3507,-96.0058,2.0,280.2820132,35.29678314,-99999.0,'11111222,11111222,99999999' 
TABS,ioos:station:wmo:42049:1,2010-04-04T05:30:00Z,28.3507,-96.0058,2.0,282.34263,33.30984839,-99999.0,'11111222,11111222,99999999' 
TABS,ioos:station:wmo:42049:1,2010-04-04T06:00:00Z,28.3507,-96.0058,2.0,281.3138652,31.75708582,-99999.0,'11111222,11111222,99999999' 
TABS,ioos:station:wmo:42049:1,2010-04-04T06:30:00Z,28.3507,-96.0058,2.0,284.2109333,33.48462334,-99999.0,'11111222,11111222,99999999' 
TABS,ioos:station:wmo:42049:1,2010-04-04T07:00:00Z,28.3507,-96.0058,2.0,289.7480862,31.60893703,-99999.0,'11111222,11111222,99999999' 
TABS,ioos:station:wmo:42049:1,2010-04-04T07:30:00Z,28.3507,-96.0058,2.0,296.2510953,28.53265673,-99999.0,'11111222,11111222,99999999' 
TABS,ioos:station:wmo:42049:1,2010-04-04T08:00:00Z,28.3507,-96.0058,2.0,293.4162529,28.73661949,-99999.0,'11111222,11111222,99999999' 
TABS,ioos:station:wmo:42049:1,2010-04-04T08:30:00Z,28.3507,-96.0058,2.0,296.1492262,27.70561315,-99999.0,'11111222,11111222,99999999' 
TABS,ioos:station:wmo:42049:1,2010-04-04T09:00:00Z,28.3507,-96.0058,2.0,298.5390189,26.75029719,-99999.0,'11111222,11111222,99999999' 
TABS,ioos:station:wmo:42049:1,2010-04-04T09:30:00Z,28.3507,-96.0058,2.0,298.0202898,25.01177523,-99999.0,'11111222,11111222,99999999' 
TABS,ioos:station:wmo:42049:1,2010-04-04T10:00:00Z,28.3507,-96.0058,2.0,298.193363,23.77005259,-99999.0,'11111222,11111222,99999999' 
TABS,ioos:station:wmo:42049:1,2010-04-04T10:30:00Z,28.3507,-96.0058,2.0,305.282325,22.66270284,-99999.0,'11111222,11111222,99999999' 
TABS,ioos:station:wmo:42049:1,2010-04-04T11:00:00Z,28.3507,-96.0058,2.0,308.1635117,21.62150781,-99999.0,'11111222,11111222,99999999' 
TABS,ioos:station:wmo:42049:1,2010-04-04T11:30:00Z,28.3507,-96.0058,2.0,309.4822547,21.98684379,-99999.0,'11111222,11111222,99999999' 
TABS,ioos:station:wmo:42049:1,2010-04-04T12:00:00Z,28.3507,-96.0058,2.0,311.2735004,17.29705466,-99999.0,'11111222,11111222,99999999' 
TABS,ioos:station:wmo:42049:1,2010-04-04T12:30:00Z,28.3507,-96.0058,2.0,318.516855,17.75352359,-99999.0,'11111222,11111222,99999999' 
TABS,ioos:station:wmo:42049:1,2010-04-04T13:00:00Z,28.3507,-96.0058,2.0,312.1418443,15.45537123,-99999.0,'11111222,11111222,99999999' 
TABS,ioos:station:wmo:42049:1,2010-04-04T13:30:00Z,28.3507,-96.0058,2.0,320.2672463,15.17494316,-99999.0,'11111222,11111222,99999999' 
TABS,ioos:station:wmo:42049:1,2010-04-04T14:00:00Z,28.3507,-96.0058,2.0,322.5389715,15.30681548,-99999.0,'11111222,11111222,99999999' 
TABS,ioos:station:wmo:42049:1,2010-04-04T14:30:00Z,28.3507,-96.0058,2.0,324.7648507,12.34102103,-99999.0,'11111222,11111222,99999999' 
TABS,ioos:station:wmo:42049:1,2010-04-04T15:00:00Z,28.3507,-96.0058,2.0,313.2741201,10.32844616,-99999.0,'11111222,11111222,99999999' 
TABS,ioos:station:wmo:42049:1,2010-04-04T15:30:00Z,28.3507,-96.0058,2.0,317.5417963,8.132656393,-99999.0,'11133222,11111222,99999999' 
TABS,ioos:station:wmo:42049:1,2010-04-04T16:00:00Z,28.3507,-96.0058,2.0,312.6907812,6.843281377,-99999.0,'11133222,11111222,99999999' 